User: anonymous   Login
Location: Red Deer
(52.2681°N, 113.8112°W)
Time: 04:20:08
(UTC-06:00)
Language:

ITAMSAT 1 - Orbit

View from above orbital plane
View from above orbital plane
View from above satellite
View from above satellite

Ground track
Ground track

The orbit data is extracted from the following two-line orbital elements,

1 22826U 93061D   22141.88895416  .00000179  00000-0  86327-4 0  9995
2 22826  98.8830 172.2435 0010057 113.4093 246.8147 14.30513885494610
Epoch (UTC): 21 May 2022 21:20:05
Eccentricity: 0.0010057
inclination: 98.8830°
perigee height: 783 km
apogee height: 797 km
right ascension of ascending node: 172.2435°
argument of perigee: 113.4093°
revolutions per day: 14.30513885
mean anomaly at epoch: 246.8147°
orbit number at epoch: 49461

The dashed part of the orbit path shows where the satellite is in the earth's shadow,  

DLR